| time (UTC) | temp F | wind direction | speed knots | gust knots | rain 1hr in | rain 24hr in | rain mn in | humidity % | barometer mb |
| 20260503200019 | 81 | 100 | 2.6 | 8.7 | 0.00 | 0.00 | 0.00 | 41 | 1008.3 |
| 20260503194517 | 80 | 39 | 2.6 | 7.0 | 0.00 | 0.00 | 0.00 | 42 | 1008.4 |
| 20260503193014 | 78 | 62 | 4.3 | 10.4 | 0.00 | 0.00 | 0.00 | 44 | 1008.6 |
| 20260503191516 | 78 | 74 | 2.6 | 5.2 | 0.00 | 0.00 | 0.00 | 47 | 1008.8 |
| 20260503190008 | 76 | 38 | 2.6 | 7.8 | 0.00 | 0.00 | 0.00 | 47 | 1009.0 |
| 20260503184504 | 75 | 71 | 0.9 | 7.0 | 0.00 | 0.00 | 0.00 | 49 | 1009.1 |
| 20260503183102 | 74 | 36 | 3.5 | 7.8 | 0.00 | 0.00 | 0.00 | 49 | 1009.3 |
| 20260503181612 | 72 | 84 | 0.0 | 8.7 | 0.00 | 0.00 | 0.00 | 55 | 1009.4 |
| 20260503180112 | 71 | 11 | 2.6 | 7.8 | 0.00 | 0.00 | 0.00 | 53 | 1009.5 |
| 20260503174556 | 71 | 31 | 3.5 | 7.8 | 0.00 | 0.00 | 0.00 | 55 | 1009.6 |
| 20260503173058 | 69 | 9 | 2.6 | 7.0 | 0.00 | 0.00 | 0.00 | 59 | 1009.7 |
| 20260503171544 | 68 | 81 | 3.5 | 8.7 | 0.00 | 0.00 | 0.00 | 60 | 1009.8 |
| 20260503081543 | 61 | 140 | 0.0 | 1.7 | 0.00 | 0.01 | 0.00 | 80 | 1010.4 |
| 20260503071541 | 61 | 355 | 0.9 | 4.3 | 0.00 | 0.01 | 0.00 | 78 | 1010.6 |
| 20260503054531 | 61 | 62 | 0.0 | 5.2 | 0.00 | 0.01 | 0.01 | 77 | 1010.5 |
| 20260503053030 | 61 | 46 | 1.7 | 6.1 | 0.00 | 0.01 | 0.01 | 78 | 1010.4 |
| 20260503051535 | 62 | 88 | 1.7 | 8.7 | 0.00 | 0.01 | 0.01 | 77 | 1010.4 |
| 20260503050030 | 61 | 30 | 0.9 | 5.2 | 0.00 | 0.01 | 0.01 | 79 | 1010.8 |
| 20260503044531 | 61 | 84 | 3.5 | 7.0 | 0.00 | 0.01 | 0.01 | 77 | 1011.1 |
| 20260503043028 | 64 | 63 | 2.6 | 6.1 | 0.00 | 0.01 | 0.01 | 71 | 1010.8 |
| 20260503041528 | 63 | 90 | 0.0 | 0.9 | 0.00 | 0.01 | 0.01 | 73 | 1010.7 |
| 20260503040027 | 63 | 91 | 0.0 | 3.5 | 0.00 | 0.01 | 0.01 | 73 | 1010.8 |
| 20260503034529 | 63 | 294 | 0.0 | 2.6 | 0.00 | 0.01 | 0.01 | 73 | 1010.7 |
| 20260503033035 | 64 | 294 | 0.0 | 2.6 | 0.00 | 0.01 | 0.01 | 70 | 1010.6 |
| 20260503031526 | 63 | 281 | 0.0 | 6.1 | 0.00 | 0.01 | 0.01 | 74 | 1010.2 |
| 20260503030044 | 62 | 264 | 4.3 | 9.6 | 0.00 | 0.01 | 0.01 | 76 | 1010.3 |
| 20260503024531 | 62 | 247 | 4.3 | 10.4 | 0.00 | 0.01 | 0.01 | 76 | 1010.4 |
| 20260503023024 | 63 | 233 | 4.3 | 9.6 | 0.00 | 0.01 | 0.01 | 75 | 1010.5 |
| 20260503021527 | 63 | 215 | 6.1 | 17.4 | 0.00 | 0.01 | 0.01 | 73 | 1010.4 |
| 20260503020024 | 66 | 246 | 5.2 | 8.7 | 0.00 | 0.01 | 0.01 | 69 | 1010.2 |
| 20260503014523 | 67 | 207 | 3.5 | 7.0 | 0.00 | 0.01 | 0.01 | 68 | 1009.8 |
| 20260503013023 | 68 | 252 | 1.7 | 5.2 | 0.00 | 0.01 | 0.01 | 63 | 1009.8 |
| 20260503011521 | 69 | 253 | 0.9 | 2.6 | 0.00 | 0.01 | 0.01 | 64 | 1009.6 |
| 20260503010022 | 70 | 265 | 0.0 | 3.5 | 0.00 | 0.01 | 0.01 | 61 | 1009.6 |
| 20260503004521 | 71 | 227 | 0.0 | 2.6 | 0.00 | 0.01 | 0.01 | 60 | 1009.6 |
| 20260503003020 | 70 | 225 | 0.9 | 3.5 | 0.00 | 0.01 | 0.01 | 59 | 1009.6 |
| 20260503001518 | 70 | 214 | 0.9 | 5.2 | 0.00 | 0.01 | 0.01 | 58 | 1009.6 |
| 20260503000028 | 70 | 199 | 0.0 | 4.3 | 0.00 | 0.01 | 0.01 | 61 | 1009.6 |
| 20260502234514 | 70 | 202 | 0.9 | 3.5 | 0.00 | 0.01 | 0.01 | 60 | 1009.8 |
| 20260502233012 | 69 | 51 | 0.9 | 3.5 | 0.00 | 0.01 | 0.01 | 59 | 1010.0 |
| 20260502231508 | 68 | 19 | 1.7 | 4.3 | 0.00 | 0.01 | 0.01 | 61 | 1010.2 |
| 20260502230007 | 67 | 76 | 0.0 | 5.2 | 0.00 | 0.01 | 0.01 | 67 | 1010.3 |
| 20260502224502 | 66 | 83 | 2.6 | 7.8 | 0.00 | 0.01 | 0.01 | 66 | 1010.6 |
| 20260502223100 | 66 | 74 | 2.6 | 6.1 | 0.00 | 0.01 | 0.01 | 66 | 1010.8 |
| 20260502221558 | 65 | 19 | 0.9 | 7.8 | 0.00 | 0.01 | 0.01 | 67 | 1011.0 |
| 20260502220056 | 65 | 70 | 3.5 | 7.8 | 0.00 | 0.01 | 0.01 | 67 | 1011.2 |
| 20260502214556 | 64 | 88 | 2.6 | 7.8 | 0.00 | 0.01 | 0.01 | 68 | 1011.4 |
| 20260502213050 | 63 | 45 | 4.3 | 9.6 | 0.00 | 0.01 | 0.01 | 68 | 1011.5 |
| 20260502211550 | 62 | 63 | 2.6 | 7.8 | 0.00 | 0.01 | 0.01 | 71 | 1011.9 |
| 20260502210043 | 60 | 69 | 1.7 | 6.1 | 0.00 | 0.01 | 0.01 | 74 | 1011.9 |
| 20260502204540 | 59 | 55 | 0.9 | 8.7 | 0.00 | 0.01 | 0.01 | 76 | 1012.4 |
| 20260502203055 | 59 | 96 | 1.7 | 7.8 | 0.00 | 0.01 | 0.01 | 75 | 1012.5 |
| 20260502201537 | 59 | 96 | 1.7 | 7.0 | 0.00 | 0.01 | 0.01 | 73 | 1012.6 |